Location: Astroquest
(35.1187°N, 89.7105°W)
Time: 19:55:10
(UTC-06:00)

Tiangong 1 - Visible Passes

Search period start: 18 February 2018 00:00
Search period end: 28 February 2018 00:00
Orbit: 249 x 271 km, 42.8° (Epoch: 18 February)

Date Brightness Start Highest point End Pass type
(mag) Time Alt. Az. Time Alt. Az. Time Alt. Az.
18 Feb 0.4 06:12:54 10° WNW 06:15:10 60° SSW 06:17:27 10° SE visible
19 Feb 1.4 06:07:45 11° W 06:09:42 30° SSW 06:11:46 10° SSE visible
20 Feb 2.3 06:02:36 11° WSW 06:03:56 16° SW 06:05:30 10° S visible
